Погода в Салале

Оман     17°01′09″N   54°07′13″E
темп.,
°C
ветер,
м/с
пор.,
м/с
влажн.,
%
обл.,
%
осадки,
мм/ч
давл.,
гПа
погр.,
м
16 сентября, чт
чт1601:00+25ю129299 0.0 1004211
04:00+25ююв1191100 0.1 1004229
07:00+25ю1188100 0.0 1006219
10:00+28ююз3377100 0.0 1006341
13:00+28ю447849 0.0 1004521
16:00+28ю548369 0.0 1002484
19:00+26ююв3392100 0.0 1003283
22:00+26ю1189100 0.1 1005304
17 сентября, пт
пт1701:00+25вюв1190100 0.0 1005257
04:00+25ююз1289100 0.1 1003173
07:00+25юз3391100 0.0 1005267
10:00+27ююз3480100 0.0 1006405
13:00+28ю4478100 0.0 1004481
16:00+27ююз5581100 0.0 1003460
19:00+26юз338899 0.0 1004307
22:00+26юз118789 0.0 1005207
18 сентября, сб
сб1801:00+25ююз228975 0.0 1004186
04:00+25юз229197 0.0 1004159
07:00+25ююз239045 0.0 1006189
10:00+27ююз347796 0.0 1007380
13:00+29ю547190 0.0 1004463
16:00+27ю447834 0.0 1004466
19:00+26ююз338790 0.0 1005371
22:00+26ююз238476 0.0 1007301
19 сентября, вс
вс1901:00+25юз238237 0.0 1006254
04:00+25юз238723 0.0 1006240
07:00+25юз228694 0.0 1007217
10:00+27ююз337312 0.0 1008363
13:00+28ю557118 0.0 1005471
16:00+27ю447827 0.0 1005477
19:00+25ююз238653 0.0 1006373
22:00+26ююз228345 0.1 1007304
20 сентября, пн
пн2001:00+25юз228556 0.1 1007316
04:00+25юз228462 0.1 1006299
07:00+25зюз238244 0.0 1008282
10:00+27ююз447132 0.1 1008487
13:00+28ююз55687 0.0 1006554
16:00+27ююз557617 0.0 1004515
19:00+26юз338527 0.0 1006428
22:00+26ююз338570 0.1 1008388